Regional Weather Roundup
Issued by NWS

Home | Current Version | Previous Version | Text Only | Print | Product List | Glossary On
Versions: 1 2 3 4 5 6 7 8 9 10 11 12 13 14 15 16 17 18 19 20 21 22 23 24 25 26 27 28 29 30 31 32 33 34 35 36 37 38 39 40 41 42 43 44 45 46 47 48 49 50
000
ASUS43 KDTX 030401
RWRMI
MICHIGAN HOURLY REGIONAL WEATHER ROUNDUP
NATIONAL WEATHER SERVICE DETROIT/PONTIAC MI
1200 AM EDT WED SEP 03 2014

NOTE: "FAIR" INDICATES FEW OR NO CLOUDS BELOW 12,000 FEET WITH NO
SIGNIFICANT WEATHER AND/OR OBSTRUCTION TO VISIBILITY.

MIZ047>049-052>055-059>063-066>070-074>076-081>083-030500-
SOUTHEAST LOWER MICHIGAN

CITY           SKY/WX    TMP DP  RH WIND       PRES   REMARKS
ADRIAN         CLEAR     62  60  93 CALM      29.98R
ALMA           CLEAR     58  57  96 CALM      29.96R
ANN ARBOR      FOG       57  55  93 CALM      29.97R VSB 1/4
BAD AXE        CLEAR     57  57 100 CALM      29.94R
CARO           CLEAR     58  57  99 CALM      29.93R
DETROIT CITY   CLEAR     67  60  78 CALM      29.96R
DETROIT        PTCLDY    65  61  87 S5        29.97R
FLINT          CLEAR     60  55  83 CALM      29.95R
GROSSE ILE     CLEAR     66  63  88 CALM      29.95R
HILLSDALE      CLEAR     59  59 100 CALM      29.98S
HOWELL         CLEAR     61  59  94 SW3       29.97R

CITY           SKY/WX    TMP DP  RH WIND       PRES   REMARKS
JACKSON        CLEAR     62  58  86 CALM      29.97R
LAMBERTVILLE   CLEAR     63  61  94 CALM      29.97R
LANSING        CLEAR     62  58  86 CALM      29.97R
LAPEER         FAIR      58  56  94 CALM      29.96R
MASON          CLEAR     59  58  96 CALM      29.97R
MONROE         CLEAR     63  61  94 CALM      29.95R
MT. CLEMENS    CLEAR     61  59  94 SW2       29.94R
PONTIAC        CLEAR     65  60  84 CALM      29.96R
PORT HOPE        N/A     63  55  75 SW7       29.90R
PORT HURON     FOG       55  55 100 MISG      29.95R VSB 1/2
TRI CITIES     CLEAR     63  58  83 SW6       29.94R
TROY           CLEAR     68  60  73 SW5       29.98R
SAGINAW HB     CLEAR     61  59  94 S5        29.93R
$$
MIZ043>046-050>051-056>058-064>065-071>073-077>080-030500-
SOUTHWEST LOWER MICHIGAN

CITY           SKY/WX    TMP DP  RH WIND       PRES   REMARKS
BATTLE CREEK   CLEAR     65  60  84 CALM      29.98R
BENTON HARBOR  PTCLDY    63  61  93 CALM      29.96R
BIG RAPIDS     CLEAR     58  58 100 CALM      29.94R
COLDWATER      CLOUDY    63  62  96 CALM      29.98R
FREMONT        FAIR      58  56  94 CALM      29.94R
HOLLAND        CLEAR     64  62  93 CALM      29.96R
GRAND RAPIDS   CLEAR     63  60  90 CALM      29.96R
IONIA          FAIR      62  58  86 W3        29.96R
KALAMAZOO      MOCLDY    65  62  90 SW3       29.97R
LUDINGTON      CLEAR     67  63  85 S5        29.92R
MARSHALL       CLEAR     59  59  99 CALM      29.97R
MOUNT PLEASANT CLEAR     60  58  92 CALM      29.94R
MUSKEGON       CLEAR     64  60  87 CALM      29.95R
SOUTH HAVEN    PTCLDY    64  63  96 CALM      29.96R
$$
MIZ016>042-030500-
NORTHERN LOWER MICHIGAN

CITY           SKY/WX    TMP DP  RH WIND       PRES   REMARKS
ALPENA         CLEAR     59  56  89 CALM      29.89R
BEAVER ISLAND  FOG       57  57  98 CALM      29.88R VSB 3/4
BELLAIRE       CLEAR     56  55  95 CALM      29.89R FOG
CADILLAC       CLEAR     57  56  99 CALM      29.94R
CHARLEVOIX     CLEAR     61  60  97 S3        29.91S
FRANKFORT      CLEAR     65  61  86 CALM      29.90R
GAYLORD        CLEAR     56  53  90 CALM      29.92R
GRAYLING       CLEAR     54  54 100 CALM      29.93R FOG
HARBOR SPRINGS CLEAR     62  60  93 CALM      29.89R
HOUGHTON LAKE  CLEAR     55  54  96 CALM      29.94R
MANISTEE       CLEAR     57  55  94 E3        29.92R
OSCODA         CLEAR     57  56  94 SW3       29.90R
PELLSTON       CLEAR     56  55  97 CALM      29.88R
ROGERS CITY    CLEAR     55  54  97 CALM      29.90R
TRAVERSE CITY  CLEAR     64  58  80 SW6       29.88R
$$
MIZ007>008-015-030500-
EASTERN UPPER MICHIGAN

CITY           SKY/WX    TMP DP  RH WIND       PRES   REMARKS
KINROSS        CLEAR     57  57 100 SW6       29.87R
MACKINAC ISLAN CLEAR     56  56 100 W6        29.87S
NEWBERRY       CLEAR     54  53  97 SW12      29.86S
S. S. MARIE    CLEAR     55  53  93 CALM      29.85S
$$
MIZ004>006-011>014-085-030500-
CENTRAL UPPER MICHIGAN

CITY           SKY/WX    TMP DP  RH WIND       PRES   REMARKS
MANISTIQUE     FOG       52  52 100 CALM      29.86R VSB 1/4
ESCANABA       CLEAR     55  52  88 CALM      29.86R
MENOMINEE      CLEAR     61  55  82 CALM      29.87R
SAWYER-GWINN   CLEAR     57  51  79 W7        29.87R
$$
MIZ001>003-009>011-084-030500-
WESTERN UPPER MICHIGAN

CITY           SKY/WX    TMP DP  RH WIND       PRES   REMARKS
IRON MOUNTAIN  CLEAR     58  52  80 NW10      29.89R
HOUGHTON       CLOUDY    61  47  59 SW6       29.83S
COPPER HARBOR    N/A     65  48  54 W10G20    29.79F
$$

ABBREVIATIONS USED IN REMARKS
   TC - TEMPERATURE IN CELSIUS
  WCI - WIND CHILL INDEX
   HX - HEAT INDEX
  VSB - VISIBILITY



USA.gov is the U.S. government's official web portal to all federal, state and local government web resources and services.